Location: Champignolles
(47.0543°N, 4.5663°E)
Time: 06:41:38
(UTC+00:00)

Cosmos 923 Rocket - Pass Details

Date: 17 April 2021
Orbit: 759 x 785 km, 74.0° (Epoch: 13 May)

Event Time Altitude Azimuth Distance (km) Brightness Sun altitude
Rises 00:04:33 0° 350° (N) 3,230 8.2 -32.2°
Reaches altitude 10° 00:09:30 10° 31° (NNE) 2,301 7.2 -32.1°
Maximum altitude 00:10:21 10° 41° (NE) 2,276 7.1 -32.1°
Drops below altitude 10° 00:11:12 10° 50° (NE) 2,301 7.0 -32.1°
Sets 00:16:08 0° 91° (E) 3,227 7.3 -31.9°
